EJU64AM EBCI-EHAM

Flight info

Callsign EJU64AM
Flight time 0h 29m
Altitude 22000
Route CIV UY50 FERDI Y18 DENUT
Aircraft A320/M-SDE3FGHIRWY/LB1

Departure

Time 2026-05-04 14:44
Airport Brussels South Charleroi Airport (EBCI)

Arrival

Time 2026-05-04 15:13
Airport Amsterdam Airport Schiphol (EHAM)
Time Latitude Longitude Altitude Speed Heading
2026-05-04 14:18 50.46840 4.46986 585 ft 0 kts 336°
2026-05-04 14:34 50.46833 4.46991 585 ft 5 kts 336°
2026-05-04 14:34 50.46764 4.46990 586 ft 14 kts 48°
2026-05-04 14:34 50.46751 4.46952 587 ft 0 kts 68°
2026-05-04 14:36 50.46754 4.46961 587 ft 1 kts 66°
2026-05-04 14:36 50.46765 4.46987 586 ft 5 kts 55°
2026-05-04 14:37 50.46794 4.47052 585 ft 7 kts 59°
2026-05-04 14:37 50.46817 4.47125 586 ft 8 kts 65°
2026-05-04 14:37 50.46835 4.47186 586 ft 5 kts 65°
2026-05-04 14:37 50.46866 4.47294 585 ft 16 kts 66°
2026-05-04 14:38 50.46911 4.47449 586 ft 15 kts 65°
2026-05-04 14:38 50.46927 4.47590 587 ft 12 kts 127°
2026-05-04 14:38 50.46872 4.47635 590 ft 6 kts 156°
2026-05-04 14:38 50.46859 4.47644 591 ft 0 kts 156°
2026-05-04 14:40 50.46855 4.47647 591 ft 4 kts 156°
2026-05-04 14:40 50.46842 4.47656 592 ft 0 kts 156°
2026-05-04 14:41 50.46759 4.47714 595 ft 10 kts 157°
2026-05-04 14:42 50.46679 4.47670 593 ft 1 kts 242°
2026-05-04 14:43 50.46661 4.47613 593 ft 28 kts 245°
2026-05-04 14:43 50.46479 4.46989 595 ft 96 kts 245°
2026-05-04 14:43 50.46120 4.45755 596 ft 150 kts 245°
2026-05-04 14:44 50.45654 4.44118 918 ft 167 kts 246°
2026-05-04 14:44 50.45198 4.42465 1731 ft 163 kts 246°
2026-05-04 14:44 50.44714 4.40757 2197 ft 182 kts 246°
2026-05-04 14:44 50.44164 4.38834 2588 ft 205 kts 246°
2026-05-04 14:45 50.43543 4.36667 3032 ft 231 kts 246°
2026-05-04 14:45 50.42857 4.34246 3600 ft 255 kts 250°
2026-05-04 14:45 50.42616 4.31459 4349 ft 264 kts 277°
2026-05-04 14:45 50.43206 4.28719 5250 ft 269 kts 296°
2026-05-04 14:46 50.44021 4.26108 6144 ft 272 kts 296°
2026-05-04 14:46 50.44869 4.23432 6992 ft 276 kts 297°
2026-05-04 14:46 50.45723 4.20724 7827 ft 279 kts 296°
2026-05-04 14:46 50.46590 4.17970 8673 ft 283 kts 296°
2026-05-04 14:47 50.47467 4.15187 9521 ft 286 kts 296°
2026-05-04 14:47 50.48355 4.12356 10225 ft 296 kts 296°
2026-05-04 14:47 50.49298 4.09348 10493 ft 318 kts 296°
2026-05-04 14:47 50.50290 4.06177 11068 ft 327 kts 296°
2026-05-04 14:48 50.51298 4.02946 11778 ft 332 kts 296°
2026-05-04 14:48 50.52305 3.99716 12502 ft 336 kts 296°
2026-05-04 14:48 50.53338 3.96394 13240 ft 340 kts 296°
2026-05-04 14:48 50.54380 3.93034 13945 ft 344 kts 296°
2026-05-04 14:49 50.55435 3.89633 14579 ft 348 kts 297°
2026-05-04 14:49 50.56728 3.86391 15189 ft 353 kts 309°
2026-05-04 14:49 50.58464 3.83643 15829 ft 356 kts 321°
2026-05-04 14:49 50.60561 3.81551 16454 ft 360 kts 334°
2026-05-04 14:50 50.62903 3.80106 17080 ft 364 kts 340°
2026-05-04 14:50 50.65296 3.78741 17691 ft 368 kts 340°
2026-05-04 14:50 50.67683 3.77372 18286 ft 372 kts 340°
2026-05-04 14:50 50.70128 3.75962 18811 ft 376 kts 339°
2026-05-04 14:51 50.72591 3.74536 19356 ft 379 kts 339°
2026-05-04 14:51 50.75071 3.73105 19980 ft 379 kts 339°
2026-05-04 14:51 50.77550 3.71675 20599 ft 380 kts 339°
2026-05-04 14:51 50.80046 3.70232 21147 ft 383 kts 339°
2026-05-04 14:52 50.82555 3.68779 21670 ft 387 kts 338°
2026-05-04 14:52 50.85105 3.67297 21920 ft 390 kts 338°
2026-05-04 14:52 50.87622 3.65833 21968 ft 380 kts 338°
2026-05-04 14:52 50.90082 3.64528 21970 ft 377 kts 345°
2026-05-04 14:53 50.92666 3.63887 21969 ft 377 kts 356°
2026-05-04 14:53 50.95293 3.63946 21971 ft 378 kts
2026-05-04 14:53 50.97920 3.64124 21969 ft 378 kts
2026-05-04 14:53 51.00547 3.64298 21975 ft 378 kts
2026-05-04 14:54 51.03171 3.64468 21975 ft 378 kts
2026-05-04 14:54 51.05798 3.64636 21975 ft 378 kts
2026-05-04 14:54 51.08423 3.64800 21975 ft 378 kts
2026-05-04 14:54 51.11048 3.64963 21975 ft 378 kts
2026-05-04 14:55 51.13638 3.65125 21975 ft 378 kts
2026-05-04 14:55 51.16263 3.65293 21975 ft 377 kts
2026-05-04 14:55 51.18886 3.65460 21975 ft 377 kts
2026-05-04 14:55 51.21513 3.65629 21975 ft 377 kts
2026-05-04 14:56 51.24136 3.65787 21978 ft 377 kts
2026-05-04 14:56 51.26761 3.65823 21978 ft 377 kts 358°
2026-05-04 14:56 51.29386 3.65753 21981 ft 378 kts 358°
2026-05-04 14:56 51.32014 3.65626 21973 ft 378 kts 357°
2026-05-04 14:57 51.34644 3.65485 21830 ft 377 kts 357°
2026-05-04 14:57 51.37220 3.65358 21570 ft 374 kts 358°
2026-05-04 14:57 51.39808 3.65250 21316 ft 371 kts 358°
2026-05-04 14:57 51.42385 3.65162 21057 ft 369 kts 358°
2026-05-04 14:58 51.44950 3.65085 20797 ft 367 kts 358°
2026-05-04 14:58 51.47488 3.65012 20389 ft 364 kts 358°
2026-05-04 14:58 51.50016 3.64940 19927 ft 363 kts 359°
2026-05-04 14:58 51.51688 3.64893 19626 ft 362 kts 358°
2026-05-04 14:59 51.55049 3.64798 19015 ft 361 kts 358°
2026-05-04 14:59 51.57526 3.64724 18571 ft 360 kts 358°
2026-05-04 14:59 51.62520 3.64568 17643 ft 357 kts 358°
2026-05-04 15:00 51.64993 3.64495 17185 ft 354 kts 358°
2026-05-04 15:00 51.67452 3.64447 16758 ft 352 kts
2026-05-04 15:00 51.69856 3.65093 16321 ft 351 kts 18°
2026-05-04 15:01 51.73896 3.69299 15475 ft 348 kts 48°
2026-05-04 15:01 51.75491 3.72243 14982 ft 349 kts 47°
2026-05-04 15:01 51.77129 3.75133 14556 ft 348 kts 46°
2026-05-04 15:01 51.78759 3.77942 14138 ft 347 kts 46°
2026-05-04 15:02 51.80408 3.80771 13692 ft 346 kts 45°
2026-05-04 15:02 51.82050 3.83599 13241 ft 343 kts 46°
2026-05-04 15:02 51.83669 3.86410 12812 ft 341 kts 46°
2026-05-04 15:02 51.85271 3.89214 12375 ft 338 kts 47°
2026-05-04 15:03 51.86854 3.92001 11935 ft 335 kts 47°
2026-05-04 15:03 51.88425 3.94772 11503 ft 333 kts 47°
2026-05-04 15:03 51.89982 3.97528 11073 ft 330 kts 47°
2026-05-04 15:03 51.91528 4.00264 10641 ft 328 kts 47°
2026-05-04 15:04 51.93045 4.02950 10214 ft 327 kts 47°
2026-05-04 15:04 51.94562 4.05639 10005 ft 317 kts 47°
2026-05-04 15:04 51.96001 4.08187 9787 ft 298 kts 48°
2026-05-04 15:04 51.97381 4.10632 9229 ft 291 kts 48°
2026-05-04 15:05 51.98734 4.13027 8893 ft 288 kts 47°
2026-05-04 15:05 52.00088 4.15429 8511 ft 287 kts 47°
2026-05-04 15:05 52.01396 4.17755 8230 ft 271 kts 47°
2026-05-04 15:05 52.02641 4.19975 7803 ft 261 kts 47°
2026-05-04 15:06 52.03838 4.22114 7414 ft 253 kts 47°
2026-05-04 15:06 52.04995 4.24179 7014 ft 250 kts 47°
2026-05-04 15:06 52.06160 4.26254 6630 ft 248 kts 47°
2026-05-04 15:07 52.08472 4.30387 5911 ft 246 kts 47°
2026-05-04 15:07 52.09615 4.32430 5556 ft 244 kts 47°
2026-05-04 15:07 52.10754 4.34472 5207 ft 245 kts 47°
2026-05-04 15:07 52.11917 4.36560 4843 ft 250 kts 47°
2026-05-04 15:08 52.13085 4.38660 4469 ft 251 kts 47°
2026-05-04 15:08 52.14235 4.40728 4104 ft 250 kts 47°
2026-05-04 15:08 52.15397 4.42823 3740 ft 249 kts 47°
2026-05-04 15:08 52.16553 4.44907 3381 ft 248 kts 47°
2026-05-04 15:09 52.17699 4.46973 3215 ft 240 kts 47°
2026-05-04 15:09 52.18788 4.48935 3141 ft 228 kts 47°
2026-05-04 15:09 52.19838 4.50830 3052 ft 221 kts 48°
2026-05-04 15:10 52.21570 4.54726 2706 ft 208 kts 56°
2026-05-04 15:10 52.22331 4.56679 2444 ft 203 kts 56°
2026-05-04 15:10 52.23796 4.60467 1938 ft 188 kts 56°
2026-05-04 15:11 52.24481 4.62240 1656 ft 180 kts 56°
2026-05-04 15:11 52.25124 4.63906 1436 ft 165 kts 54°
2026-05-04 15:11 52.25718 4.65440 1164 ft 156 kts 53°
2026-05-04 15:11 52.26271 4.66867 958 ft 145 kts 53°
2026-05-04 15:12 52.26810 4.68269 765 ft 146 kts 54°
2026-05-04 15:12 52.27343 4.69659 619 ft 143 kts 54°
2026-05-04 15:12 52.27856 4.70996 409 ft 141 kts 54°
2026-05-04 15:12 52.28351 4.72302 245 ft 144 kts 54°
2026-05-04 15:13 52.28868 4.73621 61 ft 145 kts 54°
2026-05-04 15:13 52.29382 4.74941 -1 ft 124 kts 58°
2026-05-04 15:13 52.29744 4.75891 -2 ft 74 kts 59°
2026-05-04 15:13 52.29930 4.76380 -4 ft 28 kts 56°
2026-05-04 15:14 52.30050 4.76558 -2 ft 21 kts 30°
2026-05-04 15:14 52.30165 4.76658 -1 ft 14 kts 28°
2026-05-04 15:14 52.30225 4.76710 -1 ft 6 kts 28°
2026-05-04 15:14 52.30231 4.76715 -1 ft 0 kts 28°
2026-05-04 15:15 52.30278 4.76757 -1 ft 12 kts 34°
2026-05-04 15:15 52.30327 4.76862 -1 ft 11 kts 59°
2026-05-04 15:16 52.30434 4.77143 -1 ft 18 kts 58°
2026-05-04 15:16 52.30504 4.77323 -1 ft 20 kts 57°
2026-05-04 15:16 52.30713 4.77593 -1 ft 22 kts
2026-05-04 15:17 52.30867 4.77607 -1 ft 23 kts
2026-05-04 15:17 52.31205 4.77635 -1 ft 25 kts
2026-05-04 15:17 52.31383 4.77653 -1 ft 25 kts
2026-05-04 15:18 52.31490 4.77592 -1 ft 26 kts 316°
2026-05-04 15:18 52.31574 4.77254 -1 ft 26 kts 266°
2026-05-04 15:18 52.31564 4.76951 -1 ft 27 kts 266°
2026-05-04 15:19 52.31543 4.76347 -1 ft 26 kts 266°
2026-05-04 15:19 52.31531 4.76044 -1 ft 27 kts 266°
2026-05-04 15:19 52.31512 4.75498 -1 ft 15 kts 258°
2026-05-04 15:20 52.31461 4.75439 -1 ft 14 kts 185°
2026-05-04 15:20 52.31342 4.75450 -1 ft 12 kts 176°
2026-05-04 15:20 52.31262 4.75457 -1 ft 11 kts 177°
2026-05-04 15:20 52.31190 4.75463 -1 ft 10 kts 177°
2026-05-04 15:21 52.31131 4.75452 -1 ft 8 kts 200°
2026-05-04 15:21 52.31087 4.75475 -1 ft 6 kts 147°
2026-05-04 15:21 52.31048 4.75515 -1 ft 1 kts 148°
2026-05-04 15:22 52.31046 4.75517 -1 ft 0 kts 148°
2026-05-04 15:22 52.31047 4.75517 -1 ft 0 kts 148°